Powrót do katalogu

ERNST

AktywnyKrótkofalarstwoSSO
NORAD 60528·PAYLOAD·🇩🇪 Germany

Wystrzelony Aug 16, 2024 z Vandenberg Space Force Base

Loading…

Następne Przeloty (najbliższe 24 godziny)

TLE

ŚwieżeSource: Space-Track

Epoka: Sep 14, 2026, 11:57 UTC

1 60528U 24149BN  26257.49815946  .00010880  00000-0  26343-3 0  9997
2 60528  97.3760 341.9994 0004914 346.4585  13.6529 15.41270693116021

Śledź ERNST w czasie rzeczywistym z AllMySat

Download on the App Store